This is the latest recevied weather packets stored in our database for station/object VE3VGJ. If no packets are shown the sender has not sent any weather packets the latest 10 day(s).
| Time | Temp. | Humidity | Pressure | Rain* | Wind** | Luminosity | Snow |
|---|---|---|---|---|---|---|---|
| 1777977680 | 12.22° C | 76% | 999.4 hPa | 0 mm | - | 10 W/m² | - |
| 1777977376 | 12.78° C | 76% | 999.1 hPa | 0 mm | - | 8 W/m² | - |
| 1777977074 | 12.78° C | 76% | 999.2 hPa | 0 mm | - | 5 W/m² | - |
| 1777976770 | 12.78° C | 76% | 999.1 hPa | 0 mm | - | 8 W/m² | - |
| 1777976468 | 12.78° C | 77% | 999.2 hPa | 0 mm | - | 7 W/m² | - |
| 1777976167 | 12.22° C | 77% | 999.5 hPa | 0 mm | - | 4 W/m² | - |
| 1777975862 | 12.22° C | 78% | 999.3 hPa | 0 mm | - | 1 W/m² | - |
| 1777975559 | 12.22° C | 78% | 999.3 hPa | 0 mm | - | 2 W/m² | - |
| 1777975256 | 12.22° C | 78% | 999.3 hPa | 0 mm | - | 1 W/m² | - |
| 1777974952 | 12.22° C | 78% | 999.4 hPa | 0 mm | - | 1 W/m² | - |
| 1777974649 | 12.22° C | 78% | 999.2 hPa | 0 mm | - | 0 W/m² | - |
| 1777974345 | 12.22° C | 78% | 999.2 hPa | 0 mm | - | 0 W/m² | - |
| 1777974042 | 12.22° C | 78% | 999.3 hPa | 0 mm | - | 0 W/m² | - |
| 1777973738 | 12.22° C | 78% | 999.1 hPa | 0 mm | - | 0 W/m² | - |
| 1777973436 | 12.78° C | 78% | 999 hPa | 0 mm | - | 0 W/m² | - |
| 1777973133 | 12.78° C | 77% | 999 hPa | 0 mm | - | 0 W/m² | - |
| 1777972831 | 12.78° C | 77% | 999 hPa | 0 mm | - | 0 W/m² | - |
| 1777972528 | 13.33° C | 76% | 999.1 hPa | 0 mm | - | 0 W/m² | - |
| 1777972226 | 13.33° C | 77% | 999.2 hPa | 0 mm | - | 0 W/m² | - |
| 1777971923 | 13.33° C | 76% | 998.8 hPa | 0 mm | - | 0 W/m² | - |
| 1777971621 | 13.33° C | 76% | 999 hPa | 0 mm | - | 0 W/m² | - |
| 1777971319 | 13.33° C | 76% | 998.9 hPa | 0 mm | - | 0 W/m² | - |
| 1777971017 | 13.33° C | 76% | 998.9 hPa | 0 mm | - | 0 W/m² | - |
| 1777970715 | 13.33° C | 76% | 999 hPa | 0 mm | - | 0 W/m² | - |
| 1777970413 | 13.89° C | 75% | 998.9 hPa | 0 mm | - | 0 W/m² | - |
* Rain latest hour (hover to see other rain measurements)
** Current wind speed in m/s (hover to see current wind gust speed)